Orbital Elements at Epoch 2459200.5 (2020-Dec-17.0) TDB
Reference: JPL 32 (heliocentric ecliptic J2000)
Element | Value | Uncertainty (1-sigma) | Units |
e | .2089723285041992 | 4.0467e-08 | |
a | 3.144456436175483 | 1.5685e-08 | au |
q | 2.487352052827877 | 1.2837e-07 | au |
i | 13.06951267541351 | 4.7967e-06 | deg |
node | 181.8798526032444 | 1.5792e-05 | deg |
peri | 163.313453684581 | 1.8263e-05 | deg |
M | 164.2419253779036 | 1.0001e-05 | deg |
tp | 2458271.323265310638 (2018-Jun-01.82326531) | 5.4659e-05 | TDB |
period | 2036.651870212264 5.58 | 1.5239e-05 4.172e-08 | d yr |
n | .176760694974581 | 1.3226e-09 | deg/d |
Q | 3.80156081952309 | 1.8963e-08 | au |
|
| | Orbit Determination Parameters
Additional Information
|